Clarksburg, WV

12:03 PM EDT on July 23, 2019 (GMT -0400)
Benedum

Weather History for KCKB - May, 2019

Change the Weather History Date:

Thursday, May 2, 2019

  Actual Average Record
Temperature  
Mean Temperature 73 °F 58 °F  
Max Temperature 83 °F 70 °F 93 °F (1942)
Min Temperature 63 °F 46 °F 23 °F (1963)
Degree Days  
Heating Degree Days 0 8  
Month to date heating degree days 0 16  
Since 1 July heating degree days 4306 5078  
Cooling Degree Days 8 0  
Month to date cooling degree days 16 0  
Year to date cooling degree days 41 9  
Growing Degree Days 23 (Base 50)    
Moisture  
Dew Point 58 °F    
Average Humidity 59    
Maximum Humidity 78    
Minimum Humidity 40    
Precipitation  
Precipitation 0.02 in 0.11 in 1.34 in (1998)
Month to date precipitation 0.02 0.21  
Year to date precipitation 14.15 14.39  
Sea Level Pressure  
Sea Level Pressure 30.09 in    
Wind  
Wind Speed 6 mph (SSW)    
Max Wind Speed 20 mph    
Max Gust Speed 27 mph    
Visibility 10 miles    
Events Rain    
T = Trace of Precipitation, MM = Missing Value Source: NWS Daily Summary

Daily Weather History Graph

Daily Weather History Graph

Search for Another Location

Airport or City:

Astronomy

May. 02, 2019 Rise Set
Actual Time 6:21 AM EDT 8:15 PM EDT
Civil Twilight 5:52 AM EDT 8:44 PM EDT
Nautical Twilight 5:17 AM EDT 9:19 PM EDT
Astronomical Twilight 4:39 AM EDT 9:57 PM EDT
Moon 5:32 AM EDT (5/2) 6:01 PM EDT (5/2)
Length of Visible Light 14h 51m
Length of Day
13h 53m
Waning Crescent, 5% of the Moon is Illuminated
May 2
Waning Crescent
May 4
New
May 11
First Quarter
May 18
Full
May 26
Last Quarter

Hourly Weather History & Observations

Time (EDT) Temp. Heat Index Dew Point Humidity Pressure Visibility Wind Dir Wind Speed Gust Speed Precip Events Conditions
12:53 AM 71.1 °F - 55.0 °F 57% 30.06 in 10.0 mi South 3.5 mph - N/A   Scattered Clouds
1:53 AM 68.0 °F - 55.0 °F 63% 30.06 in 10.0 mi South 3.5 mph - N/A   Mostly Cloudy
2:53 AM 69.1 °F - 55.0 °F 61% 30.06 in 10.0 mi Calm Calm - N/A   Mostly Cloudy
3:53 AM 66.0 °F - 55.0 °F 68% 30.06 in 10.0 mi Calm Calm - N/A   Clear
4:53 AM 64.9 °F - 55.9 °F 73% 30.06 in 10.0 mi Calm Calm - N/A   Overcast
5:53 AM 69.1 °F - 55.9 °F 63% 30.08 in 10.0 mi SW 6.9 mph - N/A   Mostly Cloudy
6:53 AM 66.9 °F - 55.0 °F 66% 30.10 in 10.0 mi SSW 4.6 mph - N/A   Mostly Cloudy
7:53 AM 66.9 °F - 59.0 °F 76% 30.13 in 10.0 mi Calm Calm - 0.00 in   Overcast
8:53 AM 66.9 °F - 60.1 °F 79% 30.14 in 10.0 mi South 5.8 mph - 0.00 in Rain Light Rain
9:53 AM 68.0 °F - 61.0 °F 78% 30.14 in 10.0 mi SSW 11.5 mph - 0.00 in   Clear
10:53 AM 72.0 °F - 62.1 °F 71% 30.14 in 10.0 mi SSW 8.1 mph - N/A   Partly Cloudy
11:26 AM 73.0 °F - 62.1 °F 68% 30.18 in 10.0 mi SSW 8.1 mph - N/A   Mostly Cloudy
11:53 AM 73.9 °F - 62.1 °F 66% 30.14 in 10.0 mi SSW 9.2 mph - N/A   Mostly Cloudy
12:09 PM 75.9 °F - 62.1 °F 62% 30.17 in 10.0 mi WSW 9.2 mph - N/A   Scattered Clouds
12:53 PM 78.1 °F - 61.0 °F 56% 30.12 in 10.0 mi WSW 10.4 mph - N/A   Partly Cloudy
1:53 PM 79.0 °F - 62.1 °F 56% 30.10 in 10.0 mi SW 6.9 mph - N/A   Scattered Clouds
2:53 PM 81.0 °F 81.6 °F 60.1 °F 49% 30.08 in 10.0 mi SSW 10.4 mph - N/A   Mostly Cloudy
3:53 PM 81.0 °F 81.3 °F 59.0 °F 47% 30.06 in 10.0 mi West 8.1 mph - N/A   Scattered Clouds
4:53 PM 82.9 °F 82.6 °F 57.9 °F 42% 30.03 in 10.0 mi Variable 6.9 mph - N/A   Partly Cloudy
5:53 PM 82.0 °F 81.6 °F 55.9 °F 41% 30.03 in 10.0 mi WSW 9.2 mph - N/A   Partly Cloudy
6:53 PM 79.0 °F - 57.0 °F 47% 30.03 in 10.0 mi SSW 6.9 mph - N/A   Clear
7:53 PM 77.0 °F - 57.0 °F 50% 30.03 in 10.0 mi SSW 4.6 mph - N/A   Clear
8:53 PM 73.9 °F - 57.0 °F 55% 30.04 in 10.0 mi South 3.5 mph - N/A   Clear
9:30 PM 70.0 °F - 57.9 °F 65% 30.13 in 10.0 mi WNW 16.1 mph 26.5 mph 0.00 in Rain Light Rain
9:53 PM 66.0 °F - 60.1 °F 81% 30.10 in 8.0 mi WNW 4.6 mph - 0.02 in Rain Light Rain
10:53 PM 64.9 °F - 60.1 °F 84% 30.08 in 10.0 mi SSW 3.5 mph - 0.00 in Rain Light Rain
11:53 PM 66.0 °F - 59.0 °F 78% 30.06 in 10.0 mi SE 5.8 mph - 0.00 in   Partly Cloudy